Weather History for Clyde, NU

Change the Weather History Date:

Tuesday, October 9, 2012

  Actual Average Record
Temperature  
Mean Temperature 15 °F -  
Max Temperature 20 °F 19 °F 33 °F (1998)
Min Temperature 10 °F 8 °F 1 °F (1996)
Degree Days  
Heating Degree Days 50    
Moisture  
Dew Point 7 °F    
Average Humidity 65    
Maximum Humidity 79    
Minimum Humidity 36    
Precipitation  
Precipitation 0.00 in 0.04 in - ()
Sea Level Pressure  
Sea Level Pressure 29.90 in    
Wind  
Wind Speed 6 mph ()    
Max Wind Speed 12 mph    
Max Gust Speed -    
Visibility 9.0 miles    
Events      
Averages and records for this station are not official NWS values.
T = Trace of Precipitation, MM = Missing Value Source: Averaged Metar Reports

Daily Weather History Graph

Daily Weather History Graph

Search for Another Location

Airport:

Trip Planner

Search our weather history database for the weather conditions in past years. The results will help you decide how hot, cold, wet, or windy it might be!

Date:

Astronomy

Oct. 09, 2012 Rise Set
Actual Time 8:25 AM ADT 6:14 PM ADT
Civil Twilight 7:22 AM ADT 7:17 PM ADT
Nautical Twilight 6:09 AM ADT 8:29 PM ADT
Astronomical Twilight 4:50 AM ADT 9:48 PM ADT
Moon No Moon Rise 5:48 PM ADT (10/9)
Length of Visible Light 11h 54m
Length of Day
9h 48m
Last Quarter, 37% of the Moon is Illuminated
Oct 9
Last Quarter
Oct 15
New
Oct 22
First Quarter
Oct 29
Full
Nov 6
Last Quarter

Hourly Weather History & Observations

Time (ADT) Temp. Windchill Dew Point Humidity Pressure Visibility Wind Dir Wind Speed Gust Speed Precip Events Conditions
12:00 AM 15 °F - 6 °F 55% 29.88 in 9 mi West 6.9 mph - -  
12:00 AM 14.0 °F 3.9 °F 6.8 °F 73% 29.88 in 9.0 mi West 6.9 mph - N/A   Clear
1:00 AM 15.8 °F 6.1 °F 6.8 °F 68% 29.88 in 9.0 mi WSW 6.9 mph - N/A   Clear
2:00 AM 17.6 °F 9.3 °F 8.6 °F 68% 29.89 in 9.0 mi WSW 5.8 mph - N/A   Clear
3:00 AM 14.0 °F 6.5 °F 5.0 °F 67% 29.89 in 9.0 mi WSW 4.6 mph - N/A   Clear
4:00 AM 12.2 °F -1.0 °F 3.2 °F 67% 29.90 in 9.0 mi WNW 10.4 mph - N/A   Clear
5:00 AM 10.4 °F -1.5 °F 3.2 °F 73% 29.90 in 9.0 mi West 8.1 mph - N/A   Clear
6:00 AM 13 °F - 5 °F 58% 29.90 in 9 mi WNW 11.5 mph - -  
6:00 AM 12.2 °F -1.0 °F 5.0 °F 73% 29.90 in 9.0 mi WNW 10.4 mph - N/A   Clear
7:00 AM 12.2 °F -0.2 °F 5.0 °F 73% 29.91 in 9.0 mi West 9.2 mph - N/A   Clear
8:00 AM 15.8 °F 6.1 °F 5.0 °F 62% 29.91 in 9.0 mi WSW 6.9 mph - N/A   Clear
9:00 AM 14 °F - 4 °F 53% 29.91 in 9 mi West 8.1 mph - -  
9:00 AM 14.0 °F 2.9 °F 5.0 °F 67% 29.91 in 9.0 mi West 8.1 mph - N/A   Clear
10:00 AM 14.0 °F - 5.0 °F 67% 29.91 in 9.0 mi SW 2.3 mph - N/A   Clear
11:00 AM 15.8 °F 4.2 °F 6.8 °F 68% 29.91 in 25.0 mi West 9.2 mph - N/A   Partly Cloudy
12:00 PM 14 °F - 8 °F 67% 29.90 in 9 mi West 3.5 mph - -  
12:00 PM 14.0 °F 6.5 °F 8.6 °F 79% 29.90 in 25.0 mi West 4.6 mph - N/A   Mostly Cloudy
1:00 PM 15.8 °F 10.2 °F 8.6 °F 73% 29.89 in 25.0 mi West 3.5 mph - N/A   Mostly Cloudy
2:00 PM 19.4 °F 11.5 °F 6.8 °F 58% 29.88 in 25.0 mi West 5.8 mph - N/A   Mostly Cloudy
3:00 PM 16 °F - 8 °F 57% 29.89 in 9 mi West 5.8 mph - -  
3:00 PM 15.8 °F 6.1 °F 6.8 °F 68% 29.89 in 25.0 mi West 6.9 mph - N/A   Mostly Cloudy
4:00 PM 15.8 °F 10.2 °F 6.8 °F 68% 29.89 in 25.0 mi West 3.5 mph - N/A   Overcast
5:00 PM 17.6 °F 10.7 °F 5.0 °F 58% 29.90 in 25.0 mi West 4.6 mph - N/A   Overcast
6:00 PM 20 °F - 4 °F 36% 29.90 in 9 mi West 3.5 mph - -  
6:00 PM 17.6 °F 12.3 °F 6.8 °F 63% 29.90 in 25.0 mi West 3.5 mph - N/A   Mostly Cloudy
7:00 PM 19.4 °F 14.3 °F 8.6 °F 63% 29.91 in 25.0 mi SW 3.5 mph - N/A   Overcast
8:00 PM 19.4 °F 12.8 °F 10.4 °F 68% 29.91 in 25.0 mi West 4.6 mph - N/A   Overcast
9:00 PM 17 °F - 8 °F 56% 29.91 in 9 mi West 2.3 mph - -  
9:00 PM 17.6 °F 12.3 °F 8.6 °F 68% 29.91 in 9.0 mi WNW 3.5 mph - N/A   Clear
10:00 PM 17.6 °F - 8.6 °F 68% 29.90 in 9.0 mi West 2.3 mph - N/A   Clear
11:00 PM 15.8 °F - 8.6 °F 73% 29.89 in 9.0 mi Calm Calm - N/A   Partly Cloudy